Location: Prairie Dale
(45.6972°N, 104.5033°W)
Time: 15:23:09
(UTC+00:00)

ESTCUBE 1 - Pass Details

Date: 26 June 2022
Orbit: 646 x 657 km, 97.9° (Epoch: 07 August)

Event Time Altitude Azimuth Distance (km) Brightness Sun altitude
Exits shadow 04:38:14 21° 139° (SE) 1,431 ? -13.7°
Maximum altitude 04:40:56 52° 72° (ENE) 811 ? -14.0°
Drops below altitude 10° 04:45:17 10° 356° (N) 2,057 ? -14.4°
Sets 04:47:33 0° 352° (N) 2,974 ? -14.6°
